TDRS 7

Last updated on Thu Jul 03 2025 00:02:38 GMT+0000 (Coordinated Universal Time)

1 23613U 95035B 25183.62150804 -.00000243 00000+0 00000+0 0 9990 2 23613 13.5218 350.5909 0011193 86.1410 157.3068 1.00273961109743
UTC large
Height (km)
Speed (km/s)
/
Latitude / Longitude
Inclination (degrees)
Orbital Period (minutes)
Azimuth
Elevation
Range (km)
Doppler Factor

Next 0 passes for location: London (51.5072 / 0.1276)

Sorry there are no passes over London.